Carlsbad, NM

3:01 PM MDT on June 22, 2017 (GMT -0600)
Cavern City

Weather History for KCNM - January, 2013

Change the Weather History Date:

Tuesday, January 22, 2013

  Actual Average Record
Temperature  
Mean Temperature 44 °F -  
Max Temperature 66 °F 57 °F 82 °F (1950)
Min Temperature 23 °F 29 °F 9 °F (1966)
Degree Days  
Heating Degree Days 20    
Moisture  
Dew Point 25 °F    
Average Humidity 57    
Maximum Humidity 85    
Minimum Humidity 20    
Precipitation  
Precipitation 0.00 in - - ()
Sea Level Pressure  
Sea Level Pressure 30.16 in    
Wind  
Wind Speed 4 mph (SW)    
Max Wind Speed 9 mph    
Max Gust Speed -    
Visibility 10 miles    
Events      
Averages and records for this station are not official NWS values.
T = Trace of Precipitation, MM = Missing Value Source: NWS Daily Summary

Daily Weather History Graph

Daily Weather History Graph

Search for Another Location

Airport or City:

Trip Planner

Search our weather history database for the weather conditions in past years. The results will help you decide how hot, cold, wet, or windy it might be!

Date:

Astronomy

Jan. 22, 2013 Rise Set
Actual Time 6:56 AM MST 5:21 PM MST
Civil Twilight 6:30 AM MST 5:47 PM MST
Nautical Twilight 6:00 AM MST 6:17 PM MST
Astronomical Twilight 5:31 AM MST 6:46 PM MST
Moon 1:48 PM MST 3:17 AM MST
Length of Visible Light 11h 17m
Length of Day
10h 25m
Waxing Gibbous, 83% of the Moon is Illuminated
Jan 22
Waxing Gibbous
Jan 26
Full
Feb 3
Last Quarter
Feb 10
New
Feb 17
First Quarter

Hourly Weather History & Observations

Time (MST) Temp. Windchill Dew Point Humidity Pressure Visibility Wind Dir Wind Speed Gust Speed Precip Events Conditions
12:53 AM 27.0 °F 23.0 °F 21.9 °F 81% 30.18 in 10.0 mi NNW 3.5 mph - N/A   Clear
1:53 AM 27.0 °F - 21.9 °F 81% 30.17 in 10.0 mi Calm Calm - N/A   Clear
2:53 AM 26.1 °F 21.9 °F 21.0 °F 81% 30.17 in 10.0 mi WNW 3.5 mph - N/A   Clear
3:53 AM 27.0 °F 20.5 °F 21.9 °F 81% 30.17 in 10.0 mi North 5.8 mph - N/A   Clear
4:53 AM 24.8 °F 20.5 °F 19.4 °F 80% 30.18 in 10.0 mi West 3.5 mph - N/A   Clear
5:53 AM 23.0 °F 18.4 °F 19.0 °F 85% 30.20 in 10.0 mi WSW 3.5 mph - N/A   Clear
6:53 AM 24.1 °F - 19.9 °F 84% 30.24 in 10.0 mi Calm Calm - N/A   Clear
7:53 AM 30.0 °F 26.5 °F 24.1 °F 79% 30.24 in 10.0 mi NNW 3.5 mph - N/A   Clear
8:53 AM 37.0 °F - 26.1 °F 65% 30.21 in 10.0 mi Calm Calm - N/A   Clear
9:53 AM 44.1 °F 41.5 °F 26.1 °F 49% 30.23 in 10.0 mi NNE 4.6 mph - N/A   Clear
10:53 AM 46.9 °F - 27.0 °F 46% 30.21 in 10.0 mi Calm Calm - N/A   Clear
11:53 AM 54.0 °F - 27.0 °F 35% 30.16 in 10.0 mi SE 4.6 mph - N/A   Clear
12:53 PM 60.1 °F - 27.0 °F 28% 30.12 in 10.0 mi SE 5.8 mph - N/A   Clear
1:53 PM 62.1 °F - 26.1 °F 25% 30.09 in 10.0 mi SSE 6.9 mph - N/A   Clear
2:53 PM 64.0 °F - 24.1 °F 22% 30.09 in 10.0 mi SE 4.6 mph - N/A   Clear
3:53 PM 66.0 °F - 23.0 °F 20% 30.07 in 10.0 mi SE 6.9 mph - N/A   Clear
4:53 PM 63.0 °F - 24.1 °F 23% 30.08 in 10.0 mi SSE 5.8 mph - N/A   Clear
5:53 PM 53.1 °F - 26.1 °F 35% 30.11 in 10.0 mi SSE 5.8 mph - N/A   Clear
6:53 PM 48.0 °F - 28.0 °F 46% 30.13 in 10.0 mi South 9.2 mph - N/A   Clear
7:53 PM 43.0 °F 38.8 °F 28.0 °F 56% 30.13 in 10.0 mi WSW 6.9 mph - N/A   Clear
8:53 PM 39.9 °F 36.7 °F 27.0 °F 60% 30.14 in 10.0 mi West 4.6 mph - N/A   Clear
9:53 PM 39.0 °F 35.7 °F 28.0 °F 65% 30.13 in 10.0 mi West 4.6 mph - N/A   Clear
10:53 PM 36.0 °F 31.1 °F 27.0 °F 70% 30.15 in 10.0 mi North 5.8 mph - N/A   Clear
11:53 PM 37.0 °F 34.5 °F 28.0 °F 70% 30.14 in 10.0 mi North 3.5 mph - N/A   Clear